Zurück zum Katalog

STARLINK-34699

AktivKommunikationVLEO
NORAD 64921·PAYLOAD·🇺🇸 United States

Gestartet Jul 26, 2025 von Cape Canaveral Space Force Station

Loading…

Nächste Überflüge (nächste 24 Stunden)

TLE

AktuellSource: CelesTrak SupGP

Epoche: Sep 14, 2026, 21:16 UTC

1 64921C 25157T   26257.88659722  .00003811  00000+0  11255-3 0  2577
2 64921  53.1586 183.6101 0001353  81.5421  25.6205 15.34401073    14

Verfolge STARLINK-34699 in Echtzeit mit AllMySat

Download on the App Store